Waarnemingen

Advertentie
Mijn weer
Trapani/Birgi, Italië (16429): temperatuur & dauwpunt: 19.11.2017 02:00:00 - 25.11.2017 02:00:00 (CET)Trapani/Birgi, Italië (16429): windsnelheid: 19.11.2017 02:00:00 - 25.11.2017 02:00:00 (CET)Trapani/Birgi, Italië (16429): windrichting: 19.11.2017 02:00:00 - 25.11.2017 02:00:00 (CET)Trapani/Birgi, Italië (16429): luchtdruk: 19.11.2017 02:00:00 - 25.11.2017 02:00:00 (CET)Trapani/Birgi, Italië (16429): zicht: 19.11.2017 02:00:00 - 25.11.2017 02:00:00 (CET)Trapani/Birgi, Italië (16429): Zonneschijnduur: 19.11.2017 02:00:00 - 25.11.2017 02:00:00 (CET)
Datum & Tijd tt [°C] td [°C] ff [km/u] ff [kn] dd ppp [hPa] vv [km] sd [min]
25.11.2017 02:00:00 - - - - - - - -
25.11.2017 01:00:00 10,8 10,0 8 4 OZO 1022,6 12 -
25.11.2017 00:00:00 11,0 10,2 9 5 OZO 1022,7 12 -
24.11.2017 23:00:00 11,0 10,1 8 4 ZO 1023,0 12 -
24.11.2017 22:00:00 11,2 10,3 8 4 ZO 1023,0 12 -
24.11.2017 21:00:00 11,4 10,6 4 2 O 1022,5 12 -
24.11.2017 20:00:00 12,0 11,4 5 3 OZO 1022,3 12 -
24.11.2017 19:00:00 13,6 12,5 4 2 ONO 1022,1 20 -
24.11.2017 18:00:00 15,2 13,6 5 3 N 1021,8 20 -
24.11.2017 17:00:00 17,0 13,9 5 3 WNW 1021,6 20 6
24.11.2017 16:00:00 18,0 14,3 4 2 WNW 1021,5 20 48
24.11.2017 15:00:00 18,6 12,4 9 5 W 1021,3 25 60
24.11.2017 14:00:00 18,6 11,2 13 7 W 1022,0 25 60
24.11.2017 13:00:00 19,0 10,8 11 6 W 1022,2 25 60
24.11.2017 12:00:00 19,0 10,5 4 2 W 1022,6 25 60
24.11.2017 11:00:00 18,8 10,4 4 2 N 1023,1 25 60
24.11.2017 10:00:00 16,8 12,4 8 4 ZZO 1022,8 10 60
24.11.2017 09:00:00 14,0 10,8 5 3 O 1022,2 10 60
24.11.2017 08:00:00 10,2 9,1 11 6 O 1021,9 10 18
24.11.2017 07:00:00 9,0 8,2 11 6 OZO 1022,0 10 0
24.11.2017 06:00:00 10,0 9,2 9 5 OZO 1022,0 10 -
24.11.2017 05:00:00 11,0 9,4 9 5 O 1021,7 10 -
24.11.2017 04:00:00 11,0 9,4 9 5 O 1021,7 10 -
24.11.2017 03:00:00 11,0 9,4 11 6 OZO 1021,6 10 -
24.11.2017 02:00:00 11,0 9,4 11 6 OZO 1021,6 10 -
24.11.2017 01:00:00 11,2 10,1 9 5 O 1021,7 10 -
24.11.2017 00:00:00 11,4 9,8 8 4 OZO 1021,9 10 -
23.11.2017 23:00:00 12,0 10,4 8 4 OZO 1022,2 10 -
23.11.2017 22:00:00 12,0 10,4 8 4 OZO 1022,1 10 -
23.11.2017 21:00:00 13,0 12,2 8 4 O 1021,9 10 -
23.11.2017 20:00:00 13,0 12,2 8 4 O 1021,7 10 -
23.11.2017 19:00:00 14,0 12,9 5 3 O 1021,2 10 -
23.11.2017 18:00:00 14,4 13,3 8 4 O 1021,1 10 -
23.11.2017 17:00:00 15,8 13,8 11 6 ZZO 1020,5 10 18
23.11.2017 16:00:00 18,4 13,5 16 9 ZZO 1020,3 10 60
23.11.2017 15:00:00 19,4 13,1 16 9 ZZO 1020,2 10 60
23.11.2017 14:00:00 19,6 13,1 18 10 ZZO 1020,1 10 60
23.11.2017 13:00:00 19,6 13,3 16 9 ZZO 1020,4 10 60
23.11.2017 12:00:00 19,0 13,0 16 9 ZZO 1021,1 10 60
23.11.2017 11:00:00 18,4 13,3 21 11 ZO 1021,4 10 60
23.11.2017 10:00:00 16,8 12,7 22 12 ZO 1021,1 10 48
23.11.2017 09:00:00 15,0 11,6 18 10 ZO 1021,1 10 30
23.11.2017 08:00:00 12,4 10,3 16 9 OZO 1020,6 10 0
23.11.2017 07:00:00 12,2 10,4 16 9 ZO 1020,3 10 0
23.11.2017 06:00:00 11,8 10,4 16 9 ZO 1020,1 10 -
23.11.2017 05:00:00 12,0 10,6 11 6 OZO 1020,1 10 -
23.11.2017 04:00:00 12,0 10,7 13 7 OZO 1020,1 10 -
23.11.2017 03:00:00 12,0 10,7 16 9 ZO 1020,2 10 -
23.11.2017 02:00:00 12,2 11,1 15 8 ZO 1020,2 10 -
23.11.2017 01:00:00 12,2 10,9 15 8 ZO 1020,6 10 -
23.11.2017 00:00:00 12,2 10,8 16 9 ZO 1020,7 10 -
22.11.2017 23:00:00 12,2 10,9 16 9 ZO 1021,0 10 -
22.11.2017 22:00:00 12,4 11,5 15 8 ZO 1020,7 10 -
22.11.2017 21:00:00 12,4 11,6 15 8 ZO 1020,5 10 -
22.11.2017 20:00:00 12,8 11,9 13 7 ZO 1020,6 10 -
22.11.2017 19:00:00 13,0 12,2 13 7 ZO 1020,7 10 -
22.11.2017 18:00:00 14,2 12,6 13 7 OZO 1020,6 10 -
22.11.2017 17:00:00 15,0 12,3 11 6 ZZO 1020,6 10 0
22.11.2017 16:00:00 17,2 11,2 16 9 Z 1020,4 10 60
22.11.2017 15:00:00 17,8 12,9 13 7 ZZW 1020,5 10 60
22.11.2017 14:00:00 17,8 12,3 16 9 ZZW 1020,7 10 60
22.11.2017 13:00:00 17,4 11,9 13 7 ZZW 1021,2 10 60
22.11.2017 12:00:00 17,2 11,7 15 8 ZW 1021,6 10 60
22.11.2017 11:00:00 17,0 12,3 13 7 ZZW 1022,3 10 60
22.11.2017 10:00:00 15,2 11,8 9 5 ZO 1022,5 10 60
22.11.2017 09:00:00 13,0 10,5 11 6 ZO 1022,0 10 60
22.11.2017 08:00:00 10,0 8,4 11 6 OZO 1021,5 10 18
22.11.2017 07:00:00 10,2 8,8 9 5 OZO 1021,3 10 0
22.11.2017 06:00:00 9,8 8,2 11 6 ZO 1021,2 10 -
22.11.2017 05:00:00 10,2 8,8 9 5 OZO 1021,6 10 -
22.11.2017 04:00:00 10,2 9,4 9 5 OZO 1022,0 10 -
22.11.2017 03:00:00 10,4 10,0 8 4 OZO 1021,8 10 -
22.11.2017 02:00:00 10,4 9,8 8 4 ZO 1021,6 10 -
22.11.2017 01:00:00 10,6 10,4 9 5 OZO 1021,7 10 -
22.11.2017 00:00:00 11,6 11,3 8 4 OZO 1021,8 10 -
21.11.2017 23:00:00 11,2 10,9 8 4 ZO 1021,6 10 -
21.11.2017 22:00:00 14,4 11,5 4 2 - 1021,4 10 -
21.11.2017 21:00:00 14,4 11,9 13 7 WNW 1021,2 10 -
21.11.2017 20:00:00 13,8 13,2 4 2 - 1021,4 10 -
21.11.2017 19:00:00 14,4 13,4 4 2 Z 1021,3 10 -
21.11.2017 18:00:00 15,0 13,5 4 2 WZW 1021,2 10 0
21.11.2017 17:00:00 16,2 14,0 5 3 WNW 1021,1 10 6
21.11.2017 16:00:00 17,2 14,1 11 6 WNW 1021,0 10 0
21.11.2017 15:00:00 17,6 13,7 16 9 WNW 1020,7 10 48
21.11.2017 14:00:00 18,0 13,1 13 7 WNW 1021,1 10 60
21.11.2017 13:00:00 17,6 13,7 21 11 WNW 1021,3 10 60
21.11.2017 12:00:00 17,4 12,7 22 12 WNW 1021,6 10 48
21.11.2017 11:00:00 17,4 13,3 24 13 WNW 1022,1 10 60
21.11.2017 10:00:00 17,0 13,0 18 10 WNW 1022,0 10 18
21.11.2017 09:00:00 13,4 11,1 5 3 O 1021,7 10 18
21.11.2017 08:00:00 10,6 10,4 11 6 ZO 1021,5 10 0
21.11.2017 07:00:00 10,4 10,0 9 5 ZO 1021,2 10 0
21.11.2017 06:00:00 11,0 10,4 8 4 OZO 1021,2 10 -
21.11.2017 05:00:00 11,0 10,4 8 4 ZO 1021,2 10 -
21.11.2017 04:00:00 11,0 10,2 8 4 ZO 1021,3 10 -
21.11.2017 03:00:00 11,0 10,2 13 7 ZO 1021,7 10 -
21.11.2017 02:00:00 11,2 10,6 13 7 ZO 1021,9 10 -
21.11.2017 01:00:00 11,2 10,4 11 6 ZZO 1022,1 10 -
21.11.2017 00:00:00 11,4 10,3 9 5 OZO 1022,1 10 -
20.11.2017 23:00:00 11,2 10,4 9 5 OZO 1022,0 10 -
20.11.2017 22:00:00 11,6 11,0 9 5 OZO 1021,7 10 -
20.11.2017 21:00:00 11,8 11,4 9 5 OZO 1021,7 10 -
20.11.2017 20:00:00 12,0 11,7 8 4 O 1021,6 10 -
20.11.2017 19:00:00 13,0 12,4 8 4 ZO 1021,4 10 -
20.11.2017 18:00:00 14,0 11,9 2 1 N 1021,1 10 -
20.11.2017 17:00:00 16,4 12,4 4 2 NNW 1021,1 10 42
20.11.2017 16:00:00 18,0 12,7 8 4 NNW 1020,6 10 60
20.11.2017 15:00:00 18,2 12,0 11 6 NNW 1020,7 10 60
20.11.2017 14:00:00 18,0 12,9 16 9 NNW 1021,0 10 60
20.11.2017 13:00:00 18,2 13,1 16 9 NNW 1020,8 10 60
20.11.2017 12:00:00 18,0 13,3 16 9 NNW 1020,9 10 60
20.11.2017 11:00:00 17,8 13,5 16 9 NNW 1020,6 10 60
20.11.2017 10:00:00 17,4 12,3 16 9 N 1020,3 10 60
20.11.2017 09:00:00 17,2 12,5 16 9 NNW 1020,1 10 42
20.11.2017 08:00:00 15,6 11,4 11 6 NW 1019,3 10 12
20.11.2017 07:00:00 15,0 11,6 11 6 NNW 1018,1 10 0
20.11.2017 06:00:00 15,8 11,4 15 8 NNW 1018,1 10 -
20.11.2017 05:00:00 15,8 10,8 18 10 NNW 1017,4 10 -
20.11.2017 04:00:00 15,4 12,2 22 12 WNW 1017,2 10 -
20.11.2017 03:00:00 16,0 12,2 26 14 NW 1017,3 10 -
20.11.2017 02:00:00 16,0 10,7 26 14 NW 1017,2 10 -
20.11.2017 01:00:00 16,0 10,5 28 15 NW 1017,2 10 -
20.11.2017 00:00:00 16,0 11,0 28 15 NW 1017,2 10 -
19.11.2017 23:00:00 15,4 11,2 26 14 WNW 1017,2 10 -
19.11.2017 22:00:00 15,0 11,0 24 13 WNW 1017,2 10 -
19.11.2017 21:00:00 14,6 10,6 18 10 W 1016,5 10 -
19.11.2017 20:00:00 15,0 10,8 22 12 W 1016,4 10 -
19.11.2017 19:00:00 15,2 12,7 24 13 W 1016,2 10 -
19.11.2017 18:00:00 15,8 13,1 18 10 WNW 1016,1 10 -
19.11.2017 17:00:00 16,0 13,1 22 12 WNW 1016,3 10 12
19.11.2017 16:00:00 17,0 13,1 26 14 WNW 1016,1 10 54
19.11.2017 15:00:00 17,0 13,5 13 7 WNW 1016,1 10 12
19.11.2017 14:00:00 17,2 13,1 13 7 WNW 1016,4 10 30
19.11.2017 13:00:00 17,2 12,1 11 6 NW 1016,7 10 60
19.11.2017 12:00:00 17,2 11,7 15 8 NW 1017,1 10 60
19.11.2017 11:00:00 16,8 11,3 16 9 NW 1017,4 10 60
19.11.2017 10:00:00 16,2 10,7 16 9 NNW 1017,3 10 48
19.11.2017 09:00:00 16,0 10,7 16 9 NW 1017,2 10 24
19.11.2017 08:00:00 15,0 10,0 16 9 NW 1016,8 10 12
19.11.2017 07:00:00 15,0 10,6 16 9 NNW 1016,1 10 0
19.11.2017 06:00:00 15,0 10,2 16 9 NNW 1015,8 10 -
19.11.2017 05:00:00 14,8 10,4 16 9 NNW 1015,8 10 -
19.11.2017 04:00:00 15,0 10,8 16 9 NNW 1015,9 10 -
19.11.2017 03:00:00 15,0 10,8 18 10 NNW 1015,9 10 -
19.11.2017 02:00:00 15,0 11,2 18 10 NW 1016,2 10 -

tt = temperatuur
td = dauwpunt
ff = windsnelheid
dd = windrichting
ppp = luchtdruk
vv = zicht
sd = Zonneschijnduur

Weerstations in de omgeving